RH
11 10 9 8 9 10 11 10 12 15 17 24 33 37 45 57 59 63 63 59 63 65 64 62 64 72 77 77 76 72 70 71 74 77 82 86 82 83 91 84 74 79 78 65 70 81 90 99 95 92 83 73 80 94 100 100 100 98 96 94 95 91 85 85 85 87 83 75 76 76 75 76 78 74 69 67 66 66 63 61 59 60 60 58 56 54 52 52 52 52 52 51 51 50 48 46 44
13 13 10 9 8 10 11 10 17 21 26 43 49 42 49 62 66 71 71 63 63 63 62 61 62 64 68 72 72 75 76 76 77 78 80 85 82 84 93 89 78 76 75 67 69 76 86 94 92 92 85 76 83 93 97 98 100 99 99 98 95 91 86 89 90 89 81 80 86 81 77 77 77 73 70 69 66 65 62 60 59 59 59 57 56 54 54 55 55 55 55 55 54 53 51 48 46
13 12 10 10 8 10 12 12 20 22 30 46 53 51 56 66 71 73 70 64 60 58 58 58 59 60 63 67 72 77 79 81 81 81 82 83 84 87 93 90 82 73 70 71 73 75 84 92 91 90 88 85 90 94 95 96 99 95 93 93 91 91 90 89 89 85 79 79 84 80 79 79 78 76 72 71 66 63 62 60 61 60 59 58 57 56 57 59 59 59 58 57 56 54 52 49 47
13 11 9 9 8 12 13 17 31 36 40 45 53 63 69 74 76 73 67 64 59 54 53 52 54 56 58 62 70 75 78 80 81 84 86 86 87 92 93 88 83 75 69 73 76 76 81 95 95 89 92 92 90 94 91 87 96 95 92 95 93 91 88 86 85 80 78 80 85 85 86 86 84 80 76 74 68 65 64 62 62 61 60 60 59 60 61 62 62 61 60 59 58 55 52 50 48
11 10 9 10 13 16 15 23 42 49 51 51 59 72 75 78 78 74 69 64 60 57 54 52 51 51 52 55 59 66 73 78 80 83 87 88 90 95 97 92 89 81 73 77 82 79 78 92 98 91 92 89 83 91 91 81 88 94 94 99 97 93 87 86 86 82 83 88 91 90 89 87 85 83 79 74 67 64 63 62 62 62 63 62 62 63 64 64 63 63 62 62 60 56 53 51 50
14 13 13 18 19 20 24 32 43 48 49 51 58 65 70 77 77 75 71 67 64 61 59 58 57 54 54 54 54 57 65 73 78 81 84 86 90 96 98 99 98 87 78 83 90 87 79 83 92 92 88 84 83 87 88 80 82 89 89 92 93 92 88 86 87 85 88 92 93 91 88 85 83 79 73 67 63 61 62 63 64 65 64 63 63 64 65 63 62 63 63 63 61 58 55 54 53
19 20 20 26 24 27 36 37 41 45 46 53 60 57 59 66 68 69 68 66 65 63 61 59 58 57 56 55 55 56 58 66 75 82 85 87 90 94 98 98 96 88 81 87 94 92 85 79 81 82 79 83 88 84 82 80 82 88 88 87 88 86 86 87 87 88 92 94 93 90 87 83 79 75 72 70 68 66 65 66 67 65 63 64 66 67 65 62 61 61 61 61 60 59 57 55 54
25 26 27 32 33 38 43 40 42 49 52 61 64 50 45 48 50 53 53 55 56 56 56 55 56 56 56 55 56 57 57 62 69 78 85 89 89 92 98 97 94 87 79 84 94 93 86 80 76 71 71 84 91 90 90 88 87 90 89 88 86 85 90 90 88 90 96 98 93 90 87 82 77 75 76 75 73 71 70 68 65 64 65 68 70 68 64 62 63 62 60 60 60 59 58 56 51
30 31 33 38 43 45 45 48 50 54 59 60 57 49 47 46 44 45 45 47 49 49 46 47 50 51 54 57 60 62 64 66 69 78 83 88 90 91 96 96 95 90 79 78 86 92 87 83 80 71 76 92 97 97 98 93 91 93 92 91 88 90 94 90 88 90 98 100 92 89 86 81 77 78 79 79 76 74 72 70 66 66 69 71 70 68 66 66 65 63 60 58 58 57 56 52 44
33 34 37 41 48 48 46 53 54 54 59 56 54 55 53 51 49 47 44 42 45 45 40 38 39 42 47 53 60 66 73 76 80 88 90 92 94 95 96 96 97 94 89 84 86 92 92 92 90 82 86 96 96 97 98 93 92 94 95 95 93 93 95 92 94 96 99 98 91 89 84 80 79 80 82 81 80 78 76 73 71 72 73 73 71 70 69 68 64 61 58 57 56 54 50 42 33
35 34 37 43 48 51 49 51 53 54 58 54 53 51 49 51 50 49 46 42 42 41 36 36 35 37 42 50 60 68 77 82 87 96 98 98 98 99 99 99 99 98 99 97 94 94 95 98 98 94 95 95 93 93 93 95 96 97 98 99 96 96 95 92 95 99 99 97 93 87 82 83 84 83 83 83 84 82 78 76 76 77 77 77 75 74 73 67 60 55 53 52 50 45 38 29 21
33 34 41 48 50 51 50 50 50 52 53 53 52 51 51 51 49 50 51 49 48 44 39 38 37 40 43 48 58 68 75 79 82 89 95 99 99 99 100 100 99 99 100 101 99 97 97 99 99 98 99 97 95 94 94 97 99 99 99 100 98 97 96 93 95 100 99 96 92 85 83 88 90 89 89 88 87 84 83 83 82 81 81 81 80 78 70 60 52 47 43 40 35 30 24 17 13
34 38 48 55 55 55 57 56 54 55 56 56 56 55 53 51 51 52 54 55 53 49 44 40 38 40 43 44 51 61 66 68 72 77 83 92 97 98 100 100 99 98 99 100 100 99 99 100 100 99 100 100 98 98 98 98 100 100 100 100 100 99 99 99 99 100 98 95 91 85 84 88 90 91 92 91 90 89 89 88 87 85 83 79 75 69 56 44 39 34 28 24 20 16 13 10 9
41 46 54 57 58 60 66 64 58 58 58 59 59 56 54 52 54 55 57 59 58 55 49 43 39 38 40 41 45 51 55 58 64 72 83 92 97 98 99 100 100 98 96 98 100 99 98 99 101 100 99 100 100 100 100 99 100 99 99 98 98 99 98 97 97 94 92 91 89 86 86 88 90 91 93 93 93 92 92 91 88 82 71 57 49 43 34 27 23 20 16 14 12 10 9 8 8
45 52 56 58 61 62 67 67 62 62 60 60 60 55 52 52 55 58 60 62 62 61 53 46 42 39 40 42 43 47 50 52 58 69 84 97 97 96 99 100 99 99 96 97 100 97 94 95 99 100 100 99 99 100 100 100 99 98 98 95 93 92 90 91 92 90 90 89 88 88 89 90 91 92 93 95 95 94 93 86 76 68 52 32 24 20 17 15 13 12 11 10 9 9 9 9 9
46 54 55 56 61 60 64 66 63 63 59 56 54 51 52 54 56 59 61 63 64 64 58 51 48 48 49 49 50 53 56 56 59 66 77 91 92 88 93 95 94 98 100 100 100 97 94 95 97 98 99 100 99 100 101 101 99 98 98 94 88 87 87 89 91 92 92 93 94 94 94 93 93 93 96 96 93 86 76 66 56 49 36 20 13 12 10 10 11 11 10 10 10 10 10 10 10
46 51 49 51 55 56 63 65 62 64 61 59 58 57 55 54 57 58 60 62 66 67 60 54 52 55 58 60 62 63 65 65 63 65 72 86 91 86 89 93 92 96 99 98 94 93 93 95 96 92 92 95 95 94 95 99 100 99 97 93 89 88 88 88 90 94 95 97 99 99 99 98 96 94 92 85 73 60 47 41 38 34 32 25 16 12 11 10 10 10 10 10 11 10 11 11 11
48 51 46 51 58 58 64 68 67 65 62 61 59 57 56 55 57 60 62 64 68 66 58 56 57 61 64 65 69 70 71 71 66 67 72 85 97 96 93 91 91 94 96 95 91 91 93 95 93 89 88 90 88 87 88 93 96 93 89 90 92 93 93 92 93 95 95 97 99 98 97 95 92 89 86 80 72 65 58 56 55 54 52 38 20 13 12 11 11 11 11 11 11 11 11 12 12
51 53 49 54 63 64 65 68 68 62 57 54 53 54 56 57 59 61 66 69 71 67 57 55 60 64 67 68 73 75 75 77 75 74 74 79 88 90 86 83 84 88 89 87 89 94 96 94 89 85 87 88 86 88 90 93 94 90 88 91 97 98 97 96 96 97 96 95 94 93 91 89 87 85 83 82 78 69 60 59 59 55 43 27 16 14 13 12 12 12 12 12 12 12 12 12 12
48 53 58 57 58 62 59 59 62 59 57 55 55 55 54 56 59 63 70 74 76 74 62 54 55 58 63 68 72 76 77 81 83 85 85 84 83 79 73 72 75 79 79 80 87 96 98 94 88 85 84 84 87 93 95 97 98 97 96 98 99 99 97 96 95 94 92 90 89 88 86 86 86 86 85 84 79 62 42 33 30 26 20 16 15 14 14 13 13 13 13 13 13 13 12 13 13
44 43 52 52 52 56 53 52 56 57 58 57 55 52 51 55 57 63 73 78 79 78 68 57 52 50 55 63 69 75 77 79 82 85 88 88 88 87 82 79 83 87 85 85 89 93 93 88 85 86 84 84 90 97 99 100 100 99 99 97 95 92 88 85 82 81 81 81 81 82 83 84 83 80 78 76 72 57 36 23 19 17 17 17 16 15 15 14 13 14 13 13 13 13 13 14 15
40 36 35 40 50 58 54 51 53 54 54 54 51 48 49 50 52 62 74 79 80 77 71 62 54 49 51 58 66 73 77 79 83 85 88 90 92 96 95 93 94 95 90 89 89 87 87 86 87 90 92 94 96 99 100 100 100 98 96 92 87 81 77 74 71 66 62 60 58 58 60 62 59 53 50 49 47 38 27 21 19 19 18 17 16 15 14 13 13 13 13 13 13 13 14 14 15
43 44 34 38 54 62 56 50 51 51 51 51 48 46 45 46 51 60 69 75 78 73 68 63 57 54 53 55 60 68 74 79 84 88 93 96 97 99 100 98 96 96 93 91 91 90 91 93 94 96 98 99 99 98 98 97 97 95 91 87 84 80 77 74 69 56 43 38 36 35 35 35 34 31 30 30 28 25 22 21 20 19 18 17 16 14 13 13 13 12 12 12 13 14 14 14 15
41 45 43 45 54 58 53 49 49 48 49 50 47 45 45 47 53 58 64 70 72 70 68 64 60 59 57 56 58 65 73 78 82 87 95 99 100 100 99 99 97 97 97 96 95 93 95 96 96 98 100 99 97 95 94 94 93 91 89 87 86 83 75 65 56 45 34 31 31 31 32 31 30 29 29 28 25 24 23 22 21 20 18 17 15 14 14 13 12 11 11 12 12 12 11 13 17
43 46 49 45 46 46 44 44 44 42 44 47 46 47 49 52 56 56 62 67 67 67 67 66 64 64 65 64 64 69 75 79 81 83 92 99 99 100 99 99 98 97 98 99 99 96 97 98 95 97 99 98 96 94 94 93 93 94 93 91 89 85 71 53 41 35 32 31 32 33 35 35 34 33 32 30 28 26 25 24 23 21 19 17 16 15 14 13 12 11 11 11 10 9 11 15 21
53 51 48 42 42 39 37 39 42 42 44 46 47 48 47 49 55 57 61 64 64 66 68 69 69 70 72 73 74 77 79 81 82 81 85 88 90 94 97 99 99 98 97 98 100 98 99 99 97 98 99 98 94 94 96 96 96 97 97 97 95 86 67 49 39 35 34 34 36 37 39 39 38 38 37 34 32 29 28 27 25 23 21 19 18 16 15 13 12 13 12 11 11 12 16 21 25
53 48 41 37 36 33 37 44 47 45 47 50 49 46 41 42 50 56 60 62 64 66 70 73 73 75 76 77 78 80 81 82 84 83 82 83 89 94 97 99 98 96 96 95 96 96 97 98 98 99 99 97 96 97 99 98 98 96 95 95 96 88 63 45 41 38 39 39 41 42 42 43 42 42 41 39 37 34 32 30 28 26 23 21 19 17 16 15 15 15 16 16 17 19 22 26 28
51 46 39 37 31 31 43 48 50 50 52 54 50 45 41 42 45 46 49 55 60 62 67 72 74 77 78 79 79 78 79 80 82 83 83 86 92 96 96 97 94 93 95 95 94 93 95 96 96 98 100 99 99 99 96 95 97 96 95 92 95 91 63 43 41 41 43 44 45 45 45 45 45 45 45 44 43 41 38 35 33 30 27 24 22 21 20 21 21 21 22 23 24 26 29 31 33
43 40 38 37 31 36 47 48 51 53 55 56 53 46 42 43 42 37 38 42 46 48 55 64 71 76 78 79 80 80 80 80 79 80 83 85 86 86 85 88 88 89 92 93 92 92 94 94 93 95 96 96 95 96 95 95 99 99 98 95 97 94 68 46 43 45 47 48 48 48 49 49 48 48 48 48 47 46 45 42 39 36 33 30 28 27 27 27 27 28 28 29 30 32 35 37 38
34 36 38 41 38 40 49 51 51 51 54 57 57 47 38 42 42 38 39 38 38 38 40 47 56 66 73 77 80 80 82 82 82 81 81 82 82 82 81 82 83 83 85 87 87 88 90 92 93 94 95 94 94 96 99 99 100 100 100 99 99 98 80 56 47 48 50 51 51 51 52 52 52 52 51 50 50 49 49 47 46 44 42 40 39 38 38 38 38 38 38 39 40 41 43 46 47
33 40 43 46 47 44 49 55 52 53 57 59 62 51 38 43 44 41 43 41 38 37 36 38 40 46 54 61 68 75 80 81 82 81 81 80 80 81 81 82 82 82 82 83 84 86 89 93 97 99 98 98 98 98 100 99 99 99 100 100 100 99 90 74 60 56 56 54 54 54 54 54 54 55 54 53 53 52 51 50 50 49 49 48 48 48 48 48 49 50 50 51 52 52 53 53 53
32 43 46 50 53 49 52 56 54 58 63 64 70 61 43 42 44 44 45 41 38 35 34 36 35 36 37 38 44 56 70 77 79 79 80 80 80 80 81 82 81 79 78 78 78 80 84 91 96 99 100 100 100 100 100 99 99 99 99 100 100 95 90 87 79 71 66 62 59 57 56 56 57 57 57 57 56 55 54 54 53 52 52 51 52 52 52 52 53 53 54 55 56 57 57 56 54
33 44 49 53 56 55 56 56 55 58 63 64 68 63 48 41 43 45 44 42 38 33 32 35 36 36 34 32 31 34 45 57 65 71 75 78 79 79 78 78 77 77 76 76 76 76 79 84 90 94 97 99 100 99 100 100 100 100 99 100 100 96 93 93 91 85 79 72 67 63 60 59 59 59 59 59 59 59 58 58 57 56 55 55 54 54 53 53 54 55 56 57 57 58 58 57 51
40 50 53 56 58 58 57 57 58 60 62 62 61 58 47 41 46 46 42 41 37 35 36 36 36 35 34 33 32 30 31 36 43 50 56 61 65 67 67 65 64 65 65 64 65 68 70 74 77 80 84 91 97 100 100 99 99 99 100 99 100 99 99 98 98 96 92 85 77 71 66 63 62 61 62 62 62 62 61 61 61 60 59 58 57 56 56 55 55 56 57 58 59 59 59 54 43
46 56 60 62 62 59 58 58 59 60 60 59 59 58 49 45 46 42 37 36 34 35 37 35 33 33 33 33 33 33 34 34 37 40 43 46 48 51 53 54 53 52 52 50 50 53 57 62 65 67 69 74 83 91 94 95 95 97 100 100 100 100 99 100 99 99 99 95 89 82 74 69 65 63 63 64 65 65 65 65 65 64 63 62 60 59 58 57 57 58 59 60 61 60 57 47 33
47 56 59 58 57 51 50 53 53 55 57 54 52 50 45 39 36 33 33 33 30 31 32 31 31 33 34 36 36 37 37 38 41 44 46 46 45 42 42 44 46 47 47 46 47 49 51 54 58 62 64 67 76 86 92 95 97 98 100 100 100 100 99 99 99 99 100 100 98 93 85 76 69 67 66 67 68 69 69 68 68 67 66 65 63 62 60 59 60 61 62 62 62 60 51 37 24
48 54 54 52 50 44 41 45 49 53 53 45 37 37 37 33 30 31 34 31 27 27 29 30 31 33 35 36 38 38 39 41 43 46 47 47 47 45 43 41 41 43 43 44 46 51 55 57 60 61 62 65 74 86 95 99 100 100 100 100 100 100 99 98 99 99 99 99 99 98 94 83 73 70 69 69 71 71 72 72 72 71 70 68 66 64 63 62 62 63 63 63 62 56 43 28 17
55 58 59 57 55 51 45 45 47 46 45 39 35 41 44 37 32 33 32 28 25 27 29 30 31 33 33 33 35 38 40 41 42 44 45 46 48 49 49 45 42 42 42 43 45 51 58 64 67 67 66 66 70 81 91 96 99 100 100 100 100 100 99 99 99 99 99 98 97 98 99 89 77 73 71 71 72 74 75 75 75 75 73 71 68 66 65 64 63 64 65 63 59 48 32 21 14
62 64 65 60 54 52 46 40 39 40 42 41 42 52 52 42 37 35 33 29 27 27 27 30 33 33 32 32 35 37 39 40 42 44 46 48 50 51 51 50 47 45 45 47 48 51 58 64 69 72 73 74 76 83 92 96 98 100 100 100 100 100 99 99 99 99 99 98 97 99 100 94 83 77 76 75 76 77 78 78 77 77 75 72 70 68 66 65 65 66 66 59 49 35 21 14 13
56 58 58 52 44 44 41 35 36 40 45 46 49 56 51 42 38 35 32 31 29 28 29 32 34 34 35 35 35 36 37 39 43 45 47 49 50 51 53 52 50 49 49 51 53 55 58 63 69 74 76 79 84 90 97 99 100 100 100 100 100 100 99 99 99 98 97 97 98 99 100 98 89 82 79 77 77 79 79 80 79 77 75 73 70 68 66 66 67 68 62 47 31 20 14 13 13
48 47 46 42 37 39 39 37 39 43 45 48 55 59 48 37 37 34 32 33 30 30 33 33 33 36 37 36 33 33 33 35 37 38 41 43 45 47 49 50 50 50 52 54 57 59 62 66 72 76 79 82 87 93 98 100 100 100 99 98 99 100 100 100 99 99 98 98 100 100 100 98 91 84 82 79 79 80 81 81 80 77 75 72 69 68 67 68 69 66 52 32 18 14 14 14 14
43 40 38 37 37 37 39 42 49 53 53 54 58 62 52 41 42 40 35 33 31 33 34 32 35 37 36 33 32 32 31 31 31 31 33 34 36 39 41 44 46 48 51 54 57 61 64 69 73 78 82 85 91 96 98 99 99 100 99 98 99 100 100 100 100 100 99 100 100 100 100 96 89 85 82 80 81 82 82 81 79 76 74 71 70 70 71 72 67 52 32 18 14 14 14 14 15
41 37 35 39 41 41 43 49 59 65 65 66 66 66 62 54 52 47 38 34 34 35 34 33 36 36 35 35 34 33 33 33 31 30 30 31 32 34 35 38 41 43 46 48 51 56 61 66 70 75 81 87 94 98 99 100 100 100 100 100 99 100 100 100 100 100 100 100 100 100 99 93 86 83 81 81 82 82 81 79 77 76 74 73 73 73 73 67 50 30 17 15 15 15 15 16 16
42 37 37 41 42 46 51 53 62 66 66 70 66 63 70 69 58 48 39 38 38 36 33 33 34 35 38 39 36 34 36 36 33 30 32 35 35 36 36 37 38 38 39 41 43 47 52 58 64 69 76 82 89 95 99 100 100 100 100 100 100 100 100 100 100 100 100 100 100 99 96 90 85 83 83 84 84 83 81 79 78 77 76 76 76 74 66 48 29 18 16 16 15 16 16 17 17
42 39 42 44 46 52 55 55 59 59 64 69 57 53 69 68 52 47 44 41 41 36 33 35 35 38 41 40 37 36 38 38 34 32 36 38 38 39 39 39 39 38 38 38 39 40 43 48 54 60 67 75 81 88 94 98 99 100 100 99 100 100 100 100 100 100 100 100 100 98 92 88 86 86 86 87 87 86 84 82 81 80 78 78 75 64 47 29 20 17 17 17 17 17 18 17 17
45 44 47 48 51 53 54 58 56 57 68 70 53 49 64 64 50 48 48 43 42 40 38 40 41 43 43 39 38 38 40 40 36 36 39 39 39 40 39 37 37 38 39 40 40 40 40 42 45 49 55 62 70 77 86 94 98 99 100 100 100 100 100 100 100 100 100 100 100 97 91 88 88 88 89 90 90 89 87 85 83 81 80 76 64 47 31 22 19 18 18 18 18 19 18 17 16
46 48 50 52 57 56 56 56 52 66 79 65 48 46 61 73 61 50 48 44 44 44 43 45 46 47 44 41 41 42 42 41 38 39 40 40 40 40 38 35 34 36 39 41 41 41 41 41 42 43 45 50 58 67 77 88 95 97 98 99 100 100 100 100 100 100 100 99 99 96 91 90 90 91 93 93 93 91 89 87 84 82 77 64 48 34 25 21 19 19 19 19 19 19 18 16 14
49 52 55 58 59 56 59 61 63 85 87 58 48 50 63 79 65 46 47 47 47 48 46 48 50 49 46 44 45 44 43 41 39 41 41 41 42 41 39 36 34 36 38 40 41 41 42 42 42 43 43 45 50 58 67 77 84 89 94 97 99 100 100 100 100 100 99 99 98 96 93 92 93 94 95 93 93 92 89 87 83 77 65 51 38 29 23 21 20 21 21 20 20 19 17 15 12
53 56 61 68 69 68 74 76 76 87 77 53 52 58 65 71 54 42 47 46 47 48 47 49 50 48 46 46 47 45 44 42 42 43 43 42 43 42 40 36 35 37 39 41 42 43 43 43 44 45 45 45 47 52 57 62 67 75 86 94 97 99 100 100 100 100 99 98 98 96 95 95 97 97 95 94 93 92 89 84 78 67 55 43 33 25 22 22 22 22 21 21 20 17 15 13 11
54 56 60 68 77 88 97 91 80 76 65 53 57 63 64 58 47 45 45 42 44 45 46 48 45 44 45 46 47 46 45 44 43 44 44 43 44 43 41 39 38 39 42 45 45 45 44 44 44 45 44 44 44 46 48 50 55 65 79 90 95 98 100 100 100 100 99 99 97 96 96 97 99 98 96 95 94 91 86 79 70 61 49 38 28 24 24 24 24 23 22 20 18 16 13 11 9
54 56 61 63 66 77 86 83 74 67 63 59 61 64 61 51 45 45 43 44 46 44 44 45 43 44 45 45 46 45 46 46 45 46 45 44 45 45 45 44 40 39 43 47 46 44 43 42 43 43 43 42 41 42 42 43 50 63 76 86 92 96 99 100 100 100 99 99 97 97 97 97 98 98 96 95 93 87 81 74 66 56 43 32 26 26 26 25 24 23 21 19 17 14 11 9 8
57 62 67 65 59 59 63 66 65 65 72 74 69 63 55 47 45 45 46 45 43 42 43 43 43 43 42 43 44 44 46 47 46 46 45 45 48 49 50 48 42 39 43 46 46 44 42 44 46 48 50 49 46 44 43 41 48 58 68 77 85 92 98 99 99 100 99 98 98 98 98 98 98 97 96 94 90 82 77 71 61 49 36 29 28 28 27 25 24 22 20 18 15 12 10 8 7
62 67 67 63 62 61 63 66 64 67 80 78 66 60 55 52 49 43 43 43 40 42 43 41 40 39 41 44 44 45 46 45 45 46 47 48 52 54 53 48 43 41 44 46 46 45 45 48 52 56 59 59 55 50 46 43 47 54 60 69 79 86 91 94 97 100 99 98 99 99 98 98 98 97 96 91 85 80 77 68 55 41 32 30 31 29 27 24 23 21 18 15 13 10 8 7 6
62 66 65 63 67 69 69 75 76 79 87 77 63 61 59 58 56 45 42 46 45 44 41 38 39 41 44 43 41 43 44 45 48 49 51 52 52 53 52 48 45 47 49 48 47 47 49 52 54 57 60 61 59 55 50 46 46 49 53 62 73 80 83 85 89 97 100 99 99 99 99 99 98 97 94 87 83 80 75 62 46 36 32 33 31 28 25 24 22 19 16 13 11 9 7 6 6
63 63 64 65 68 69 70 79 85 88 93 83 67 62 57 55 54 46 44 47 45 43 41 41 43 43 42 40 41 44 46 49 52 52 54 53 50 50 50 51 51 53 53 50 49 52 54 56 56 59 61 60 58 55 51 48 46 47 51 58 65 73 79 82 86 94 100 100 100 100 100 99 98 95 89 84 82 78 67 53 41 35 34 32 29 26 24 23 20 17 14 12 10 8 7 6 5
61 63 66 66 65 66 66 71 77 81 89 86 74 67 56 48 47 44 44 44 44 44 43 45 47 45 42 43 46 49 52 55 57 59 58 55 54 52 52 56 58 58 57 51 52 57 58 60 61 63 66 62 54 51 48 46 46 49 54 59 64 72 80 83 86 93 98 99 100 99 99 99 95 90 86 83 81 72 59 47 38 36 34 30 26 25 23 21 19 16 13 10 8 7 6 5 4
58 60 64 64 64 66 67 69 68 71 83 87 85 78 56 42 46 46 45 47 47 47 49 51 51 47 45 48 52 55 58 60 62 64 62 61 62 60 61 65 63 60 60 54 54 59 61 63 64 67 71 62 48 44 46 48 53 59 62 64 66 73 80 84 87 92 95 96 97 97 97 96 92 88 86 84 78 68 54 43 37 34 31 27 25 24 22 20 17 14 11 9 8 7 6 5 4
58 59 61 61 62 64 72 77 69 66 74 74 80 81 54 39 50 51 49 53 53 52 54 53 51 50 52 55 59 61 60 60 63 67 69 68 66 65 69 73 67 63 64 59 57 62 63 66 69 71 74 67 53 49 51 56 66 73 76 73 71 72 78 84 88 91 93 93 93 94 93 92 89 86 85 83 76 64 49 40 35 31 27 26 24 23 21 18 15 12 10 8 7 6 5 4 3
Wind_Speed
4 5 6 7 8 6 6 7 7 7 7 9 10 8 8 9 8 7 8 10 9 8 10 13 13 11 13 16 18 19 19 20 21 22 21 19 21 23 22 24 25 25 25 26 25 22 20 19 18 17 13 12 13 11 24 30 27 30 31 26 26 25 21 20 18 15 13 11 12 11 11 11 10 9 8 9 9 9 9 9 8 8 9 9 10 10 10 10 11 12 13 14 15 16 17 17 18
4 5 7 8 8 7 7 7 7 8 10 11 10 10 10 9 9 9 9 8 8 9 9 11 13 11 10 12 14 16 18 18 20 22 22 20 21 23 23 24 26 27 26 26 26 23 20 20 20 17 15 12 11 13 24 27 29 29 28 29 27 24 21 20 20 18 15 13 14 14 12 13 12 10 10 11 11 11 10 9 9 9 10 10 10 11 11 12 12 13 14 16 17 18 18 19 19
4 5 7 8 8 8 7 8 8 10 12 12 9 10 9 8 9 10 10 9 10 11 11 12 13 13 11 11 12 14 17 17 20 22 24 23 22 24 25 26 27 28 26 26 27 25 21 18 18 16 16 13 12 23 22 21 30 29 25 27 24 21 21 19 21 20 17 16 16 15 15 15 14 13 12 12 11 10 10 10 10 11 11 12 12 12 12 13 14 15 16 17 18 19 19 20 20
4 6 6 7 8 8 8 9 10 12 11 11 10 9 8 7 8 9 10 11 12 13 14 15 15 15 15 14 12 13 14 16 19 22 24 24 23 23 25 27 29 30 27 28 28 27 23 17 17 18 18 17 21 28 24 20 23 25 25 24 22 21 21 19 20 21 19 18 16 17 18 17 16 15 14 13 12 11 11 11 12 12 12 13 13 13 14 14 15 15 16 17 19 20 20 21 21
5 7 7 7 9 10 11 11 13 13 9 9 11 9 6 6 7 8 11 12 12 13 14 15 16 17 18 18 17 16 16 16 19 21 22 23 22 22 25 28 28 29 28 28 27 27 25 21 18 20 21 22 30 31 29 28 17 15 17 19 21 19 21 20 19 19 19 18 18 19 19 18 18 17 16 15 13 12 12 12 12 13 13 14 14 14 15 15 16 16 17 18 20 20 21 22 22
8 9 9 9 10 11 12 13 13 10 8 8 8 7 6 5 6 8 9 11 12 13 14 15 16 18 19 20 21 20 19 19 19 20 21 23 23 23 26 26 28 29 28 27 26 26 25 25 25 24 27 27 33 32 33 31 15 11 12 15 19 18 19 19 19 19 19 19 20 20 18 19 18 17 15 13 13 12 12 13 13 14 14 15 15 16 17 17 17 17 18 19 21 22 22 23 24
10 11 11 11 12 13 14 13 12 8 6 6 5 5 6 6 7 8 8 10 11 13 15 17 17 18 19 20 20 21 21 22 21 21 21 23 25 26 27 27 30 30 27 27 26 27 27 28 29 29 32 32 36 36 34 29 15 11 13 15 19 20 22 22 21 21 20 21 21 20 19 18 17 16 14 13 13 13 13 13 14 15 16 16 18 19 19 19 19 20 20 20 22 23 24 25 25
11 13 13 14 14 14 13 12 10 6 5 6 6 6 6 8 9 11 12 13 13 14 15 17 18 18 19 20 20 20 21 23 23 23 23 24 25 28 29 27 29 28 26 27 26 27 28 28 31 32 32 36 40 39 31 25 16 14 15 16 19 22 24 24 23 23 23 22 20 20 20 18 17 17 16 15 15 14 14 14 15 16 17 18 19 20 20 20 21 22 22 23 24 25 26 26 25
13 14 14 14 14 13 11 9 8 7 6 6 6 6 6 9 11 13 15 16 17 16 16 17 18 17 18 19 19 20 21 22 23 24 25 25 27 28 29 26 27 27 25 27 27 28 28 29 31 32 34 38 38 32 25 21 18 16 17 19 20 23 24 22 23 24 25 22 21 21 20 19 18 19 18 17 16 15 15 15 16 17 19 19 19 20 21 22 22 23 24 25 26 27 27 27 26
13 13 15 15 13 11 11 9 7 7 6 6 5 6 7 9 12 15 16 16 17 17 17 17 18 18 17 18 19 19 20 21 22 23 25 26 28 29 29 27 28 30 28 29 30 29 28 28 31 32 36 38 32 26 24 23 21 18 21 22 22 24 23 21 22 24 24 23 22 21 21 20 20 20 20 18 16 16 16 17 17 19 19 19 20 21 23 24 24 24 25 26 27 29 29 27 26
14 13 13 14 12 8 9 9 6 7 7 6 7 7 9 11 13 15 14 13 13 14 15 15 16 17 17 17 18 19 19 21 21 21 23 26 27 28 28 25 28 32 30 31 31 32 31 30 31 33 36 36 32 30 28 26 23 20 23 24 24 24 23 22 23 24 24 23 21 21 21 20 20 20 20 19 18 18 18 18 19 20 21 21 22 23 25 26 26 25 26 27 28 29 28 27 25
13 12 11 11 11 7 7 9 7 8 8 7 8 9 10 12 12 11 11 11 11 12 13 14 15 15 16 16 17 17 18 19 20 21 22 26 29 29 29 26 29 33 30 34 36 34 35 34 33 35 36 36 34 33 31 27 24 25 27 27 26 24 24 24 23 23 22 19 20 21 21 20 20 21 21 20 19 19 19 20 21 22 23 23 23 24 26 26 27 26 26 27 27 27 26 25 24
10 11 12 10 9 8 7 7 8 8 8 8 9 10 11 11 10 10 11 12 12 13 13 13 14 14 14 15 16 16 16 16 17 19 21 27 32 33 31 30 32 33 30 31 32 30 31 34 37 37 35 35 33 30 29 28 27 28 28 26 23 21 22 22 21 21 20 19 20 20 20 19 19 19 19 19 18 19 20 21 22 23 24 24 24 25 26 27 27 27 26 26 25 24 23 23 22
10 11 13 11 8 8 8 7 8 8 8 9 10 10 10 10 10 11 13 14 14 14 13 13 13 14 14 14 15 15 15 15 15 16 18 26 32 31 29 32 34 35 29 22 21 21 19 21 28 32 30 30 31 30 29 27 27 26 22 17 16 17 18 18 19 20 20 20 21 21 20 19 18 17 17 18 18 20 21 22 23 23 23 24 25 26 27 27 26 26 25 24 22 21 21 21 21
11 12 14 11 8 9 9 8 7 7 8 10 10 10 10 11 11 13 14 15 15 14 13 12 12 12 12 12 13 13 14 14 15 15 16 24 31 24 18 23 25 30 31 25 21 19 14 8 11 19 23 23 23 28 29 25 24 24 21 18 19 19 17 18 19 20 20 21 22 22 21 21 21 20 20 20 21 22 23 22 22 22 22 24 25 26 26 25 23 23 23 22 21 20 20 20 20
12 12 14 13 9 9 8 8 8 8 9 11 11 10 11 12 12 14 15 15 15 14 13 11 10 10 10 10 11 12 13 14 15 16 16 20 29 24 16 17 14 15 22 24 22 19 16 11 6 5 9 11 12 16 20 22 22 22 21 21 21 20 19 19 21 21 21 22 23 23 24 25 25 24 22 21 20 20 20 20 20 21 22 24 25 25 24 22 21 21 21 21 20 20 19 20 21
13 12 12 12 11 9 7 8 9 9 11 12 12 12 13 14 14 14 15 15 14 13 11 10 9 8 9 9 9 10 11 12 13 14 14 17 27 28 24 21 14 9 11 15 17 15 12 9 8 10 9 8 9 9 10 13 15 17 19 20 19 18 19 20 22 23 23 24 24 25 25 25 25 24 21 19 17 17 17 18 19 20 21 24 25 25 24 22 22 21 21 20 20 20 20 20 21
9 9 8 8 10 8 7 9 10 10 11 13 13 14 14 15 15 15 15 14 12 11 10 8 8 8 9 8 8 9 9 10 10 10 10 13 22 26 24 19 14 11 9 12 16 16 14 11 10 16 18 16 16 17 16 13 13 16 19 21 20 21 22 23 23 23 23 24 25 25 24 23 22 20 18 17 17 18 19 20 21 21 21 24 25 24 23 22 22 21 20 20 19 20 21 21 22
7 6 5 5 6 6 7 9 10 10 11 11 11 12 13 14 15 16 15 14 13 10 9 8 8 8 8 8 9 9 9 9 9 9 9 11 17 22 22 20 18 17 16 17 21 21 20 17 16 18 18 17 16 17 18 16 15 16 17 19 20 21 21 21 20 20 20 20 21 22 22 22 21 20 19 18 18 18 19 21 21 21 22 23 24 22 22 22 21 21 19 19 19 20 21 21 22
5 5 4 4 3 4 7 8 9 9 9 8 9 10 12 14 15 17 17 15 14 12 10 9 9 9 9 9 9 10 10 10 9 10 10 11 14 17 20 23 23 22 22 22 24 25 22 19 18 18 19 20 17 15 14 13 14 13 13 15 16 16 16 17 17 17 18 18 19 20 21 22 23 23 23 23 21 18 18 20 20 21 22 22 22 21 21 21 21 20 19 19 19 20 21 22 23
5 5 4 4 2 3 6 7 7 7 7 8 9 10 12 14 16 17 17 15 13 12 11 10 10 9 10 10 10 11 11 12 11 10 11 13 14 16 18 21 21 20 19 20 21 22 22 21 21 19 19 19 16 14 13 13 14 13 12 13 14 14 14 15 16 17 18 19 21 22 22 23 24 23 23 22 20 17 18 19 20 21 21 21 21 21 21 21 21 20 19 20 20 22 23 24 25
5 4 3 2 1 3 6 7 8 8 9 9 10 12 13 14 15 14 13 12 11 11 11 10 10 10 10 10 11 11 12 13 13 12 12 13 15 17 18 18 18 16 16 17 19 21 23 23 21 18 16 15 14 15 14 14 14 13 12 13 14 15 15 16 17 18 18 18 18 18 18 19 19 18 17 16 16 17 18 19 20 20 20 20 21 21 21 21 21 21 22 22 23 25 26 26 27
4 4 2 3 4 6 7 7 8 10 10 11 12 12 13 13 13 11 9 7 8 9 9 9 9 9 10 11 12 12 13 13 14 13 13 15 18 20 18 17 16 17 17 17 19 21 22 21 18 15 14 13 13 14 13 13 12 12 13 14 15 16 17 18 18 17 16 14 14 13 13 13 13 13 14 14 16 17 18 19 20 20 20 21 21 22 22 22 23 24 24 25 26 27 28 29 30
4 4 3 3 4 7 7 7 8 10 11 11 12 13 13 12 11 10 7 5 6 6 7 8 8 9 10 11 12 13 12 12 13 13 13 16 21 20 18 17 17 17 19 18 18 19 20 19 16 13 13 13 13 13 12 12 12 13 14 15 16 16 16 16 16 15 14 13 12 12 12 12 12 13 14 15 16 17 18 20 20 21 21 22 22 23 24 24 25 26 27 28 29 30 31 31 32
6 5 5 4 5 7 7 8 10 10 10 11 12 12 12 11 10 8 6 5 5 5 6 7 8 9 9 10 12 12 12 11 12 12 12 14 18 18 19 18 17 18 19 20 18 17 17 16 14 13 13 13 13 13 13 13 14 14 14 16 16 17 16 15 15 14 14 14 13 13 13 12 13 14 15 16 17 18 19 20 21 22 23 23 24 25 25 26 27 28 29 30 31 32 33 33 34
7 6 7 6 6 7 8 9 10 10 9 10 11 11 12 11 10 8 5 5 5 5 6 7 8 9 9 9 10 10 11 11 11 12 12 12 14 16 18 19 19 19 18 18 17 16 15 14 13 13 14 14 15 15 16 15 15 16 15 16 17 17 17 16 15 15 15 14 14 13 13 13 14 15 16 16 17 19 19 21 22 23 24 25 26 26 27 28 28 29 30 31 32 33 34 35 36
8 8 9 8 8 8 9 9 9 9 9 9 9 11 13 11 9 8 7 7 6 6 7 8 8 9 9 9 9 10 11 11 11 12 13 13 15 17 18 19 20 19 17 17 17 17 17 17 16 16 17 17 17 17 17 18 18 19 18 18 18 18 18 17 17 16 15 14 14 14 14 15 15 16 17 18 18 19 20 22 23 24 25 26 27 28 29 30 31 31 32 33 34 35 36 36 36
9 9 10 10 9 8 6 6 7 8 7 8 10 13 13 10 9 9 9 9 9 9 9 10 10 10 10 10 10 11 11 12 12 13 13 14 16 18 19 20 21 20 19 19 19 19 20 21 21 21 21 20 19 19 19 20 21 21 21 20 20 20 19 19 17 16 15 15 15 15 16 16 17 17 18 19 20 21 22 23 24 25 26 27 28 30 31 32 33 33 34 34 35 36 36 36 36
8 8 9 11 9 5 3 4 6 6 7 8 11 14 13 10 9 9 9 11 11 12 12 12 12 11 12 12 13 13 14 14 15 15 15 16 17 18 20 21 22 21 21 22 22 22 23 24 24 24 25 23 22 22 22 22 21 22 21 21 22 21 21 20 19 18 17 16 16 17 17 17 18 19 20 21 22 22 23 24 25 26 27 29 30 31 32 33 34 35 35 35 36 36 36 37 38
8 9 10 10 8 3 3 6 6 7 9 10 11 15 13 9 9 10 11 12 12 14 14 14 14 13 13 13 15 16 16 17 17 18 18 18 19 19 20 21 22 23 23 24 25 26 26 26 26 26 26 25 24 22 23 23 22 22 22 22 22 20 21 21 21 20 19 19 18 19 19 19 20 20 21 22 23 24 25 26 27 28 29 30 31 32 33 33 34 35 36 36 36 36 37 37 38
8 10 11 10 9 5 5 8 9 9 11 10 12 16 12 8 10 13 13 14 15 17 18 17 16 16 16 16 17 17 17 18 19 20 20 21 21 22 22 23 24 25 25 26 27 28 29 29 28 27 27 26 25 24 24 24 24 24 24 24 22 21 23 23 23 22 21 21 21 21 21 21 22 22 23 24 24 25 26 27 28 29 30 31 32 33 34 35 35 36 36 36 36 36 36 37 37
9 11 10 10 11 9 9 11 10 10 12 13 14 16 15 12 14 15 15 17 20 22 22 21 20 19 19 19 19 19 19 20 20 21 22 23 24 25 25 26 27 27 28 28 29 30 30 31 30 29 29 28 28 26 25 26 26 26 26 26 25 26 27 26 25 24 23 23 23 23 23 23 24 24 24 25 26 27 28 29 30 31 32 33 34 35 36 37 37 37 37 37 36 36 36 37 37
11 12 11 9 11 12 13 13 12 12 15 16 17 19 20 18 17 18 19 22 24 25 24 23 23 23 22 22 22 22 22 23 23 23 23 24 25 26 27 28 30 30 30 30 30 30 30 31 31 31 31 31 30 28 27 27 26 27 27 27 27 28 27 27 27 27 26 26 25 25 25 25 26 26 26 27 28 29 30 30 31 32 33 34 36 37 37 38 39 39 38 37 37 36 36 36 37
10 12 11 9 11 13 15 15 13 13 15 17 19 23 25 22 21 25 25 26 27 26 24 24 24 24 23 23 22 23 24 25 26 26 27 27 27 28 29 30 31 31 32 32 32 32 32 32 33 33 33 33 32 31 29 29 29 29 29 29 29 28 28 27 28 28 28 28 28 28 28 28 28 28 28 29 29 30 31 32 33 34 35 36 36 37 38 39 39 39 38 38 37 37 36 36 36
8 9 11 12 14 15 16 16 15 16 18 19 23 28 29 26 27 30 29 29 28 27 25 24 24 23 23 23 23 22 23 24 25 26 27 28 29 29 30 31 31 32 32 33 33 34 34 34 35 35 35 34 33 32 32 32 33 32 32 31 30 30 29 29 29 30 30 29 29 29 29 30 30 30 30 31 31 32 33 33 34 35 35 36 37 38 38 39 39 39 38 38 37 37 37 36 36
8 10 13 16 18 19 18 18 19 20 22 25 28 32 32 29 28 29 28 28 27 26 25 24 23 23 23 24 24 24 24 24 24 26 27 28 29 30 31 31 32 33 33 33 34 35 35 35 36 36 35 35 34 33 32 33 34 33 34 33 31 31 31 31 31 32 32 31 31 31 31 31 31 32 32 33 33 33 34 34 35 35 35 36 37 37 38 38 38 38 38 38 38 38 37 37 36
11 12 15 17 20 21 19 19 21 23 26 29 30 31 31 28 26 25 25 26 25 24 23 22 21 21 23 23 23 23 23 23 24 26 28 28 29 30 31 32 32 33 33 33 34 34 35 35 35 36 36 35 34 33 32 33 34 34 34 34 33 32 32 33 33 34 34 33 34 34 33 33 33 33 34 34 34 34 35 36 36 36 37 37 37 38 38 38 38 39 39 39 39 39 38 38 37
12 13 16 18 22 23 21 21 23 24 27 29 28 28 29 27 25 23 24 25 22 21 21 19 18 20 21 20 20 21 21 21 22 23 25 26 27 29 30 31 31 32 32 33 34 34 34 34 35 35 35 34 34 33 33 33 34 35 36 36 34 33 33 34 35 35 35 35 36 36 35 34 34 34 35 35 35 36 37 38 38 38 39 39 39 39 39 39 39 40 40 40 40 39 39 39 39
13 15 19 22 24 25 24 22 22 21 23 26 25 27 29 29 28 26 26 23 18 18 21 20 20 21 20 19 19 19 19 18 19 20 21 22 23 25 27 28 30 31 32 32 33 33 34 34 34 34 34 33 33 33 33 33 34 36 37 37 36 35 35 36 36 37 37 37 37 38 36 35 35 35 36 36 37 38 39 40 40 41 41 41 41 41 41 40 40 39 39 40 40 40 40 40 40
16 19 22 24 24 24 24 22 21 20 22 25 26 30 33 31 29 26 21 18 16 20 25 24 23 22 21 20 17 15 15 14 15 17 18 19 21 22 24 25 27 28 30 31 31 32 33 33 33 34 34 33 33 32 32 33 34 36 36 37 36 37 38 38 38 38 38 39 39 38 37 35 35 36 37 38 39 40 41 41 41 42 42 43 43 42 42 41 40 39 39 38 39 40 41 41 41
18 20 22 24 22 22 23 23 21 22 23 24 26 30 34 30 21 16 13 15 20 25 26 23 22 22 19 15 11 10 11 11 12 14 16 18 20 22 23 25 26 27 28 28 29 30 31 32 33 34 34 34 33 32 32 33 35 35 36 36 37 38 40 41 40 40 40 40 39 38 37 36 36 38 39 40 40 41 41 41 41 43 44 44 43 42 41 40 40 39 38 38 38 39 40 42 43
20 19 19 19 18 18 20 19 19 20 19 19 17 16 22 19 8 11 19 24 25 25 23 20 17 16 11 7 7 7 9 10 13 14 15 17 18 20 22 24 26 28 28 29 29 29 29 30 31 33 34 34 34 33 32 34 35 35 35 36 37 40 42 42 41 41 41 40 39 38 37 37 38 39 40 41 42 42 42 42 43 44 44 43 41 40 39 39 38 38 37 37 38 39 40 41 43
19 17 16 15 15 16 16 17 17 15 13 13 12 11 18 23 19 23 29 28 24 21 19 18 12 6 4 6 8 7 9 13 15 15 13 14 16 18 20 22 24 26 28 29 30 31 30 31 31 32 33 33 33 33 33 33 34 35 35 35 37 40 42 42 43 43 43 42 40 39 38 38 39 40 41 42 42 42 42 43 44 43 42 40 39 39 38 38 37 37 37 37 39 40 40 41 41
17 17 15 14 15 14 15 17 17 18 20 21 21 19 24 31 30 27 27 25 23 19 13 10 7 5 8 11 9 8 12 17 17 13 11 13 16 17 19 20 22 23 25 27 29 30 31 31 33 33 33 33 33 33 33 33 34 34 35 35 37 38 40 41 42 42 42 41 40 39 38 38 39 40 41 41 41 42 43 43 42 40 39 38 38 37 36 36 36 36 37 38 39 40 40 40 40
17 16 15 15 15 15 16 18 18 23 24 21 24 22 18 24 28 23 22 22 19 11 4 6 10 12 14 12 9 11 17 20 16 13 13 16 16 15 16 18 20 22 24 26 27 28 29 30 31 32 33 33 33 33 33 33 34 34 34 36 37 38 39 39 40 41 40 40 39 39 39 39 39 40 40 40 41 41 41 40 39 38 37 36 36 35 34 35 35 36 37 38 39 40 40 40 40
16 15 15 15 15 17 18 19 22 22 18 18 26 23 13 18 26 20 17 17 11 5 7 13 16 14 12 10 12 16 20 20 16 14 16 15 12 13 17 21 22 24 25 26 27 27 28 28 29 30 31 32 32 33 33 33 33 34 34 35 36 37 38 39 40 40 40 39 39 39 39 39 39 39 39 39 39 39 38 38 37 36 35 34 34 33 34 34 35 37 38 39 39 40 40 40 40
16 15 16 16 17 20 20 21 22 15 11 16 23 21 14 11 13 12 13 14 11 10 15 20 17 13 12 12 16 19 20 18 16 16 16 12 11 16 21 24 25 25 26 27 28 28 28 28 29 29 29 29 30 30 32 32 32 33 34 34 35 36 37 38 39 40 40 39 39 38 38 38 38 38 38 38 38 37 37 36 35 35 34 33 33 33 34 35 36 38 39 40 40 40 41 41 41
16 15 16 16 14 14 13 13 11 5 5 11 12 12 13 14 14 17 17 16 15 18 21 20 15 14 15 17 20 20 17 17 17 18 17 13 15 21 25 27 26 26 27 27 28 29 29 29 29 29 28 27 28 28 29 30 31 32 33 33 34 35 36 38 39 39 39 39 38 38 38 37 37 38 38 37 37 36 36 35 34 34 33 32 33 33 34 36 37 38 39 40 40 41 41 41 41
17 17 16 11 6 6 5 4 3 5 8 11 11 8 12 25 31 30 24 21 21 20 17 15 14 17 21 22 21 17 15 17 19 20 18 16 19 25 28 30 30 29 27 27 29 29 29 29 28 29 28 27 26 27 27 29 30 31 33 33 34 35 36 37 38 38 38 38 38 37 37 37 37 38 37 36 36 35 34 34 33 33 32 32 33 34 35 37 38 39 40 40 41 41 41 41 42
15 17 16 9 2 2 3 3 3 7 9 9 10 9 13 24 28 23 16 12 11 12 12 15 20 22 23 22 18 16 17 20 21 22 20 19 23 28 31 33 32 30 27 28 29 29 28 26 25 26 25 24 24 25 26 28 30 31 32 33 33 34 36 36 37 37 37 37 37 37 37 37 38 38 37 36 35 34 34 33 33 32 32 33 34 35 37 38 39 40 40 40 41 41 41 41 42
11 12 13 11 8 5 5 3 2 6 11 11 9 7 11 16 15 13 12 12 13 17 20 20 19 18 17 18 17 18 21 21 23 23 21 22 27 32 34 35 33 29 28 29 29 27 23 21 21 22 22 24 25 26 28 29 31 31 31 32 33 34 35 36 36 36 37 37 37 37 37 37 37 37 36 35 34 34 33 33 32 32 32 34 35 37 38 39 39 40 40 41 41 41 41 42 42
11 12 13 13 14 13 10 10 12 11 13 12 11 15 22 26 28 30 28 28 25 21 19 16 14 15 17 18 19 20 21 21 22 23 22 26 32 35 35 34 32 29 28 29 28 25 22 20 21 23 25 26 28 29 31 32 32 31 31 31 32 33 33 34 35 36 36 36 37 37 37 37 37 36 35 34 34 33 32 32 31 32 33 35 36 38 39 39 40 40 41 41 41 41 41 42 42
11 13 14 14 15 15 14 13 14 11 9 11 12 19 30 31 33 34 27 22 21 16 15 15 14 16 15 15 17 17 19 21 22 24 27 33 35 35 35 35 32 28 27 29 29 28 26 25 25 27 29 29 29 29 31 33 33 31 30 30 30 31 32 33 34 35 36 36 36 36 36 36 36 35 34 34 33 32 32 31 32 33 34 36 37 38 39 39 40 41 41 41 41 41 41 42 43
14 15 14 14 13 13 13 8 6 3 5 12 14 19 29 25 22 28 24 18 19 18 15 13 11 10 10 13 18 19 22 25 26 28 33 36 36 36 36 36 31 26 26 29 30 29 28 27 28 31 32 32 31 30 31 33 33 30 29 30 30 31 32 33 34 35 35 36 35 35 35 35 34 34 33 33 32 32 31 31 32 34 36 37 38 39 39 39 40 41 41 41 41 41 41 42 43
20 20 18 15 11 10 12 8 3 3 2 8 14 17 28 32 29 31 29 22 20 17 12 7 5 9 16 22 24 24 27 29 30 33 36 37 38 38 37 36 31 25 26 30 30 29 28 29 31 33 34 34 34 33 32 32 31 29 29 29 30 31 32 33 35 35 35 35 35 35 34 34 33 33 32 32 31 31 31 32 34 35 37 38 38 39 39 39 40 41 41 41 42 42 41 42 42
23 23 21 21 17 13 15 13 8 4 2 6 12 12 26 39 33 28 27 20 15 12 9 9 12 20 26 26 25 26 28 30 33 37 38 39 40 39 37 35 31 26 27 30 30 29 29 31 33 34 34 36 38 36 31 29 28 27 28 29 30 32 33 34 35 35 35 34 34 34 34 33 32 32 32 31 31 31 32 33 35 36 37 38 39 39 40 40 40 41 41 41 41 41 41 41 42
20 23 24 24 23 20 19 20 19 13 5 3 4 8 31 44 31 24 23 13 10 12 13 18 25 30 29 25 25 28 31 34 38 39 40 41 41 38 34 34 31 27 28 31 31 31 33 34 35 36 35 35 35 32 27 25 25 26 28 29 31 32 33 34 34 34 34 34 33 33 33 32 32 32 31 31 31 32 32 34 35 37 38 39 39 40 40 40 41 41 41 41 41 41 41 41 41
20 24 24 24 25 23 15 13 20 23 17 11 3 6 38 48 29 23 22 12 14 21 23 28 33 32 28 26 27 32 37 41 42 41 42 42 40 35 32 33 31 28 28 31 33 34 35 36 36 36 35 34 32 28 26 27 28 29 30 31 33 33 33 33 33 33 33 33 33 32 32 32 32 32 31 32 32 32 33 34 36 37 38 39 40 40 40 41 41 42 41 41 41 41 41 41 39
Wind_Direction
224 235 244 242 245 235 216 206 182 175 164 143 144 162 190 204 219 212 222 224 215 217 214 216 208 193 193 204 212 220 230 229 225 218 213 214 212 211 213 218 217 210 214 218 213 211 208 212 219 221 228 234 257 238 192 195 199 202 206 208 211 217 218 211 207 200 192 195 204 212 216 216 218 221 225 236 243 246 252 258 266 273 278 284 287 291 295 301 307 311 314 315 315 315 315 315 315
206 218 229 232 235 217 203 203 181 168 154 144 155 175 195 210 218 215 223 233 234 236 232 232 233 230 220 219 219 219 225 226 226 226 227 226 221 217 214 219 224 218 217 221 218 216 211 216 223 227 233 236 244 192 172 177 181 188 195 204 212 213 213 202 197 194 187 191 204 210 217 222 222 224 228 235 242 249 257 263 268 274 279 282 285 289 294 300 305 307 310 311 311 312 313 314 315
196 207 218 224 221 203 198 203 176 157 155 154 167 184 199 217 229 235 238 242 246 248 249 246 250 253 248 243 232 220 220 222 224 227 230 229 224 219 216 219 227 226 221 221 220 219 216 216 221 224 225 230 201 180 182 172 177 198 204 209 212 199 199 194 192 195 191 194 205 212 221 230 233 236 237 237 239 249 257 263 268 273 278 281 286 290 295 299 301 304 307 309 311 313 314 314 315
185 186 196 203 198 191 189 185 160 150 154 160 173 190 201 220 237 247 248 250 251 252 256 257 260 262 261 263 254 239 237 231 228 229 228 227 221 217 220 223 229 231 226 222 222 222 218 208 215 219 214 217 196 185 197 179 167 194 202 201 195 187 193 192 195 198 197 204 215 222 227 230 235 242 248 249 247 252 256 262 268 271 276 280 285 289 294 296 298 301 304 308 311 313 314 314 315
150 153 165 172 176 182 179 169 158 153 148 164 183 191 194 212 235 246 249 254 259 261 263 264 266 266 267 269 266 260 256 246 238 234 230 230 223 215 219 225 229 231 229 224 221 222 217 198 198 213 214 212 203 193 194 189 168 172 180 184 186 190 194 195 200 202 208 216 226 231 232 232 236 242 246 249 248 251 254 260 266 271 277 282 286 289 292 295 297 300 304 309 311 312 313 313 313
127 135 149 155 166 172 169 165 163 160 144 164 193 200 201 210 233 249 257 261 264 267 269 269 269 269 270 270 270 267 263 257 250 242 235 233 226 217 212 215 224 230 230 225 220 222 220 203 193 204 212 210 204 193 184 189 194 191 188 190 196 202 202 208 212 213 221 223 227 231 232 233 236 237 235 237 242 249 255 261 267 274 279 283 287 291 294 296 299 301 305 309 310 311 311 311 311
120 135 148 151 155 156 157 162 164 164 153 166 209 215 215 225 239 252 261 267 267 267 267 269 270 271 271 269 269 268 266 261 254 249 239 231 228 224 214 216 228 232 232 226 220 222 224 215 205 205 210 211 206 196 191 200 218 226 215 210 214 219 219 223 221 221 224 224 228 231 232 232 231 231 231 235 242 251 258 266 271 276 281 286 292 296 298 300 301 303 306 309 310 309 309 309 309
122 135 145 145 143 143 148 161 163 162 172 186 225 232 234 250 260 268 270 271 270 269 269 269 269 271 271 269 269 267 266 263 258 251 242 234 232 230 223 224 231 230 232 230 224 224 228 226 220 220 216 211 205 199 201 213 236 249 233 224 223 225 224 220 215 218 220 222 227 231 233 230 229 231 234 240 245 252 260 268 273 278 284 289 294 297 299 299 301 303 306 308 308 308 307 307 306
131 135 139 139 139 142 145 156 167 171 188 203 235 257 271 278 283 287 288 282 276 275 274 271 268 269 269 268 269 266 264 263 260 253 245 239 234 235 230 224 225 227 234 237 233 229 231 231 228 229 220 209 205 205 210 224 243 248 234 228 226 225 225 218 214 218 222 225 228 233 235 232 233 235 239 242 245 252 260 267 271 278 284 289 293 296 297 297 299 302 304 305 306 306 306 304 303
145 144 137 134 136 144 151 153 168 184 198 213 238 265 280 288 295 299 300 293 283 279 278 276 271 269 269 269 269 266 264 261 260 254 247 241 235 235 231 223 220 221 230 238 238 233 229 228 227 229 222 211 209 215 222 231 241 241 231 230 227 224 225 224 224 227 231 232 234 236 236 235 236 238 241 241 244 251 258 266 273 281 287 291 294 295 295 296 298 300 302 303 305 304 303 303 302
154 151 140 139 141 149 167 165 179 207 217 228 241 255 269 282 292 297 303 300 290 284 281 280 276 272 270 269 269 267 266 263 261 257 250 243 235 228 224 221 214 211 222 229 228 230 226 223 225 229 228 222 218 222 227 233 238 233 226 227 226 222 223 228 233 236 238 237 239 240 237 236 238 242 245 246 250 255 263 272 278 283 286 289 291 293 294 295 296 297 299 301 301 300 300 302 303
158 152 144 140 141 145 172 179 195 218 230 245 256 263 272 283 291 295 301 302 297 290 285 282 278 275 272 270 268 266 267 267 266 261 254 244 230 218 219 223 213 202 205 208 204 210 212 216 226 227 227 225 222 224 228 229 229 222 219 224 224 221 222 228 234 238 239 237 239 243 242 242 246 249 251 254 258 263 269 275 279 281 282 285 287 290 292 293 294 295 296 297 296 296 298 301 304
162 155 145 132 127 130 152 180 199 216 235 252 264 274 283 285 288 292 298 300 299 296 289 283 279 275 273 270 268 266 269 270 271 266 259 248 225 206 209 219 214 200 194 195 188 187 191 201 216 222 221 220 220 223 226 224 217 213 212 213 215 215 219 224 230 236 238 239 240 245 249 251 254 255 255 258 260 265 270 274 277 278 282 286 289 291 291 292 293 294 295 295 295 297 299 301 303
163 156 147 132 123 137 155 182 203 221 239 253 264 275 284 286 287 293 296 299 301 300 292 286 280 275 272 270 269 267 270 270 272 268 259 251 228 202 198 207 211 205 202 205 191 182 177 180 196 205 210 210 214 215 215 215 212 214 217 217 222 219 218 223 229 235 237 238 241 244 247 249 253 255 257 260 262 265 269 272 275 277 284 289 290 290 289 290 292 294 295 295 296 297 299 301 303
159 158 156 145 137 156 172 188 208 236 250 256 265 272 282 289 295 298 299 300 300 299 296 290 283 277 274 272 271 267 266 265 266 263 250 240 226 211 196 196 203 203 205 213 207 203 205 197 182 186 193 199 207 209 208 213 219 229 238 248 249 242 242 245 244 244 245 246 248 249 250 252 254 256 259 262 264 266 268 271 275 279 285 287 287 286 286 288 291 294 295 295 296 298 300 302 303
156 164 167 164 165 177 189 204 222 247 259 262 268 277 288 295 298 300 302 303 300 298 296 291 285 280 277 273 273 270 266 264 262 258 251 236 226 228 219 203 208 205 202 204 208 217 225 241 266 217 194 197 207 208 210 216 225 235 246 253 252 253 256 255 252 250 251 252 253 254 256 258 259 259 261 263 266 270 273 277 281 284 286 287 287 288 289 291 292 293 293 294 296 298 301 302 303
161 169 176 176 181 193 210 227 240 253 263 270 276 283 291 295 298 300 301 302 300 297 294 289 283 277 274 274 276 276 273 270 267 262 256 243 231 229 222 219 237 242 214 210 222 244 252 254 285 294 291 279 266 259 246 230 229 241 253 258 258 259 257 253 251 250 251 252 252 254 256 258 259 261 262 263 266 270 274 276 277 279 283 286 287 288 290 291 291 291 291 293 295 299 301 302 303
178 176 179 178 182 198 218 238 251 256 265 276 282 288 294 296 299 299 298 298 293 292 291 281 273 271 269 270 274 276 277 273 269 265 261 247 233 222 217 229 249 255 253 251 252 265 276 286 301 296 294 294 284 281 285 270 260 264 265 267 269 268 265 261 259 257 257 255 255 256 258 260 261 264 266 268 270 271 273 273 274 277 280 282 282 283 284 285 286 286 288 291 295 298 299 301 302
202 192 187 182 187 213 230 249 264 270 276 284 292 296 298 299 300 297 293 290 284 285 285 272 264 266 267 266 269 271 273 273 268 264 265 252 234 223 226 242 254 261 275 276 268 269 278 292 303 300 295 297 290 284 285 275 270 270 260 261 266 267 266 262 259 259 260 260 263 266 269 272 272 272 272 273 277 281 283 282 283 283 280 278 279 280 281 282 283 284 286 289 293 295 297 298 299
207 208 214 211 224 253 249 259 275 284 289 294 300 302 304 303 300 294 288 282 276 274 273 267 261 260 265 268 269 271 271 270 268 264 268 267 254 245 247 253 257 263 273 277 274 271 278 291 294 291 290 292 287 275 269 261 257 251 241 246 257 262 264 264 265 266 270 272 274 276 278 279 279 278 276 275 278 285 288 286 285 282 279 278 279 280 280 280 280 281 284 287 290 292 293 294 295
206 215 240 233 240 274 265 268 278 287 294 298 302 306 310 307 303 296 286 277 269 267 268 267 264 261 265 269 270 271 271 270 268 264 265 271 271 265 263 262 261 263 265 272 276 273 277 287 285 280 279 278 271 258 252 249 247 243 243 249 257 264 272 280 283 283 283 283 281 281 281 280 281 281 281 281 281 283 281 280 279 277 277 278 277 278 278 278 279 280 283 285 287 288 290 291 292
214 224 263 280 327 303 283 275 278 291 298 300 303 308 312 310 310 305 289 275 262 261 266 265 264 265 268 272 274 272 272 269 265 263 261 267 271 266 262 259 258 262 268 276 280 279 279 279 276 271 267 261 252 247 246 245 245 248 254 261 268 276 283 288 290 291 290 287 285 284 282 281 282 284 285 285 282 279 277 277 277 277 277 277 277 277 277 278 280 282 283 285 286 287 288 290 292
237 239 279 322 326 306 293 282 282 295 302 303 306 310 313 316 320 315 296 271 256 258 264 265 265 270 273 275 278 276 273 268 261 256 256 262 263 255 249 251 261 272 277 282 284 282 279 273 263 256 255 252 246 242 243 246 253 261 269 276 281 285 287 288 289 291 290 287 285 282 281 280 282 285 285 283 280 279 279 280 280 279 279 279 278 278 279 280 281 282 284 285 286 288 289 291 293
250 253 282 305 298 294 293 289 289 294 299 306 311 314 318 324 330 325 307 274 255 258 264 271 273 276 278 277 276 275 275 267 257 250 247 253 254 250 249 259 275 283 279 277 278 279 277 266 250 243 248 252 251 250 252 256 263 270 276 281 285 289 291 290 288 286 284 281 279 280 282 285 288 288 286 285 283 283 283 283 283 282 280 279 279 279 279 280 281 282 284 285 286 287 289 291 293
257 270 288 297 290 289 290 293 298 300 302 309 315 318 321 328 337 336 310 276 262 261 269 279 281 282 281 278 274 272 274 267 257 251 242 245 251 253 257 265 275 281 278 271 267 271 268 256 241 237 242 247 253 259 261 262 265 269 273 278 283 288 289 288 284 281 279 279 281 284 288 292 292 290 289 287 286 286 286 285 284 282 281 280 279 279 280 280 282 283 284 285 286 287 289 291 294
270 284 293 300 294 291 297 301 305 309 311 314 318 320 321 327 335 339 312 281 272 270 279 286 289 290 285 278 271 268 272 268 261 259 248 243 249 252 254 259 265 271 274 268 261 260 254 248 246 244 242 246 254 260 261 263 266 269 272 277 283 287 286 282 280 278 279 281 285 288 290 291 290 288 288 286 286 286 285 285 283 282 281 281 280 280 281 282 284 285 286 286 286 288 290 292 294
269 284 296 301 297 301 307 305 304 312 316 314 318 318 319 325 328 331 321 305 297 288 285 286 288 289 285 278 271 267 270 268 263 262 256 247 245 247 249 253 258 263 266 264 260 257 251 249 252 252 252 253 255 255 258 265 271 274 276 279 282 283 280 275 274 275 278 280 283 286 287 287 287 287 286 286 286 285 285 285 284 283 282 281 281 281 282 283 284 285 286 286 287 288 289 291 293
262 280 295 297 303 315 315 306 303 312 313 309 315 312 313 324 326 326 325 318 314 308 298 292 289 284 279 272 268 265 266 266 265 264 259 250 247 248 251 253 257 260 261 259 256 254 252 252 255 255 256 256 256 257 262 267 271 274 276 277 278 278 275 271 269 270 272 276 278 280 281 282 284 284 285 286 286 286 287 286 285 284 283 282 282 282 282 283 284 285 286 286 287 289 290 292 293
267 279 285 287 304 328 323 316 309 311 306 303 311 307 310 324 327 329 327 321 319 317 312 303 297 288 279 270 266 264 264 266 267 267 261 254 251 252 256 258 261 261 260 259 257 255 252 252 255 256 257 257 257 260 263 264 266 269 271 272 272 272 272 269 268 270 271 274 276 278 280 281 281 282 283 283 284 285 285 285 285 284 284 283 283 283 284 285 286 286 287 288 289 290 292 293 294
280 284 278 281 295 311 336 328 314 311 303 303 305 300 311 327 322 327 325 320 319 316 313 308 302 295 288 280 273 269 266 267 267 267 265 260 257 256 258 261 264 266 265 264 263 262 259 257 256 255 257 259 259 259 259 261 265 267 268 268 267 270 273 270 269 271 273 275 277 279 281 282 283 282 282 282 283 284 284 284 284 284 284 284 284 285 285 286 286 287 287 288 289 290 291 292 293
271 270 269 272 274 279 318 314 310 312 298 296 294 290 304 317 310 316 314 312 313 311 308 304 301 297 292 287 282 277 271 267 265 264 264 263 263 262 263 264 265 267 267 268 267 266 265 263 260 257 256 259 260 259 258 262 267 269 270 268 268 275 278 274 271 271 273 275 277 279 281 282 283 283 284 284 284 284 284 284 284 284 285 285 286 286 286 286 286 287 287 288 289 290 292 293 294
256 254 258 263 269 283 300 295 299 303 291 288 284 281 293 302 303 305 302 304 307 305 303 301 300 297 292 287 282 278 273 268 266 264 263 262 263 265 267 268 269 269 269 269 269 268 267 267 265 263 261 260 261 262 262 264 266 268 270 269 271 276 277 276 276 275 276 276 277 278 280 281 283 284 285 285 286 286 285 285 285 285 285 286 286 286 286 287 287 288 289 290 292 293 294 295 295
254 251 255 262 275 289 292 289 292 293 289 288 283 281 290 300 301 298 298 301 302 300 301 299 298 295 292 288 282 277 272 270 269 268 266 263 263 264 266 267 269 270 272 272 272 271 270 269 268 267 266 265 265 265 265 263 262 265 268 269 272 274 273 275 276 277 277 278 279 279 280 281 282 284 285 285 286 286 286 286 285 285 285 286 286 286 287 287 288 289 291 292 293 293 294 295 296
250 249 253 262 280 288 287 290 295 292 288 288 286 284 289 298 299 297 299 299 298 298 297 295 294 293 292 290 286 280 275 272 272 271 270 269 267 266 266 266 267 268 270 271 273 273 272 271 270 269 268 267 266 265 265 265 265 268 272 274 275 273 272 273 275 276 276 278 280 281 281 282 283 284 285 285 285 285 285 285 285 285 285 286 287 287 287 288 289 290 291 293 293 293 293 294 295
238 248 258 267 278 280 280 287 291 289 287 286 285 283 288 295 295 295 297 297 296 295 294 295 295 295 293 290 288 284 280 277 276 276 275 275 273 272 270 269 268 268 268 268 269 270 271 271 271 271 270 269 267 266 266 268 269 271 273 274 274 274 274 275 276 277 277 278 279 281 281 282 283 284 284 285 285 285 285 285 285 286 286 287 288 288 289 289 290 291 292 294 294 293 294 294 295
236 249 262 268 274 274 275 281 286 289 289 286 283 283 288 291 290 290 293 293 293 295 297 301 301 298 294 291 289 287 283 281 279 279 279 278 277 276 275 273 271 270 268 267 266 266 267 268 270 271 271 271 270 268 267 267 268 269 271 271 271 274 276 276 277 278 280 280 280 281 282 282 283 283 283 284 285 285 286 287 287 288 288 288 289 289 290 290 291 293 293 294 294 294 295 296 298
251 255 263 268 272 276 282 285 287 289 288 285 284 285 287 286 287 289 290 292 296 301 305 304 302 299 296 293 291 288 285 282 281 280 280 280 279 278 276 275 274 272 270 269 267 265 264 264 266 268 269 270 270 269 268 267 267 268 269 269 270 273 276 278 278 279 280 281 282 282 282 282 282 283 283 285 287 288 289 290 291 291 290 290 291 291 291 292 293 294 294 294 295 296 297 298 299
268 268 271 274 275 280 288 290 288 287 285 284 285 285 283 284 288 289 289 293 301 306 306 303 298 294 294 294 293 291 288 285 283 283 284 284 284 282 279 276 275 273 271 270 267 265 264 263 263 263 265 267 268 268 267 266 266 266 266 267 268 271 275 276 277 277 278 279 280 280 281 281 282 284 285 288 290 292 292 293 293 292 292 292 293 294 294 294 295 296 296 296 296 297 297 298 299
267 268 270 273 277 284 289 290 289 287 284 284 286 285 283 286 289 289 291 295 302 307 306 305 298 293 294 295 294 291 287 286 287 289 290 290 289 287 284 280 277 273 271 270 268 267 266 266 265 265 265 265 266 265 263 263 263 263 263 265 268 271 274 274 274 275 276 276 276 277 278 280 283 285 288 290 292 293 293 293 292 293 293 294 295 295 295 295 295 296 296 297 297 297 297 298 299
257 261 265 270 279 285 287 289 290 286 285 287 290 289 287 288 288 289 292 293 302 308 306 305 300 297 297 294 292 289 287 288 289 290 289 287 287 286 285 282 279 276 274 273 271 270 269 269 269 269 268 267 267 265 263 262 263 264 266 268 272 274 275 274 273 273 273 273 274 276 278 281 284 287 289 290 291 291 291 290 291 292 293 294 295 295 295 295 295 295 295 296 297 298 299 300 301
261 263 265 271 278 280 281 285 286 285 287 290 294 294 292 294 294 292 290 294 306 308 303 303 301 298 296 291 290 290 291 293 290 287 284 282 280 280 280 280 279 279 278 277 275 274 272 271 270 270 270 268 267 266 264 264 265 267 270 272 273 274 274 273 273 273 273 274 276 279 282 285 288 289 290 290 290 290 290 290 291 292 292 293 293 292 292 292 292 293 293 294 295 298 300 301 302
271 270 269 274 278 277 279 283 286 289 291 293 301 304 297 298 293 281 293 302 307 305 301 303 302 296 293 292 292 293 300 303 297 289 284 284 284 283 282 280 279 279 279 279 277 276 275 273 271 270 270 269 268 266 264 264 266 267 270 271 273 273 274 275 276 276 277 279 281 284 286 288 288 288 288 288 288 289 289 290 291 291 291 291 291 291 290 291 291 291 292 295 297 300 302 303 303
269 272 278 281 280 281 282 284 287 289 287 287 294 295 288 287 279 282 297 305 305 304 303 300 295 286 303 311 302 301 317 318 305 290 284 289 292 293 292 290 288 286 285 284 282 280 278 275 273 271 270 270 269 268 266 265 266 267 268 270 272 274 276 277 278 280 281 283 284 285 286 286 285 285 285 285 286 287 288 289 289 288 289 289 289 289 289 290 290 292 295 298 300 302 303 304 304
263 273 284 284 284 286 281 281 280 279 282 281 280 278 279 282 284 291 302 305 306 310 304 295 290 297 315 314 306 308 321 319 303 284 286 297 298 297 299 300 299 297 294 292 290 287 284 280 277 275 273 271 270 269 268 266 266 266 267 268 270 272 273 275 278 280 281 282 283 283 282 282 281 281 282 283 285 286 286 286 286 286 286 287 287 287 288 289 290 294 297 299 301 302 302 303 304
266 276 282 280 283 282 278 281 277 281 287 282 277 275 272 277 283 295 303 302 311 317 286 295 304 301 305 304 300 306 313 311 294 278 292 300 300 305 309 310 308 304 300 297 294 292 290 287 283 280 276 274 272 271 269 267 266 265 265 266 268 270 272 274 276 278 279 280 280 280 279 279 279 280 282 283 284 284 284 284 284 284 285 285 285 286 287 290 293 297 299 301 301 302 303 304 305
267 273 275 276 280 280 283 285 281 283 282 272 276 274 257 276 286 290 297 301 311 300 280 303 303 294 293 289 292 299 303 301 287 284 297 297 298 313 318 318 314 308 304 300 298 296 293 290 287 284 280 277 274 272 270 268 266 265 264 265 266 268 270 272 274 275 275 276 276 276 277 278 279 280 282 283 283 283 283 283 283 283 283 284 285 286 289 293 297 299 301 302 303 304 305 306 307
264 267 271 276 279 282 284 280 279 284 274 270 281 276 253 269 293 290 293 304 306 290 293 302 300 290 287 288 294 295 293 292 286 290 294 285 293 313 319 320 316 309 304 301 300 299 296 292 288 285 282 279 276 273 271 269 267 266 265 264 265 266 268 269 270 271 272 273 274 275 276 278 279 281 282 283 282 282 282 282 282 282 283 284 285 289 292 296 299 301 303 304 305 306 307 308 309
262 264 269 277 284 288 282 272 267 255 264 279 292 285 246 235 262 282 290 299 294 288 292 294 290 287 287 292 296 292 286 284 285 289 284 276 296 315 323 323 317 310 304 300 298 297 295 293 289 285 283 281 278 274 272 270 269 268 266 264 264 264 265 266 267 269 270 272 273 275 276 278 279 280 281 281 281 281 280 281 281 282 283 285 288 292 296 300 302 303 305 306 307 308 309 310 310
261 258 259 266 293 313 283 252 240 232 262 283 288 287 247 248 267 281 286 287 282 281 286 284 286 292 293 294 293 286 280 280 281 283 277 276 300 316 321 319 314 310 304 298 295 294 293 292 289 286 285 283 279 275 273 271 270 268 266 265 264 263 264 265 267 268 270 271 273 275 277 278 279 280 279 280 280 280 280 281 282 283 285 288 292 296 300 303 304 305 306 307 308 309 310 311 312
257 252 247 236 189 14 275 258 280 266 272 280 276 278 263 264 278 289 290 283 269 271 281 285 292 295 294 291 287 283 282 279 279 281 276 279 301 314 315 312 311 310 302 295 294 294 292 289 286 285 285 283 281 277 275 273 271 268 266 265 264 264 265 266 267 268 270 272 274 275 277 278 278 278 278 279 279 280 280 281 283 285 289 292 296 300 303 305 306 306 307 307 308 310 311 312 313
253 247 238 232 223 220 241 245 236 276 291 281 257 255 261 266 278 288 290 281 271 280 287 291 293 291 288 287 284 285 284 278 279 280 277 286 303 310 309 308 311 309 300 295 294 291 287 283 283 284 285 285 284 282 280 276 272 268 266 265 265 265 265 266 268 269 270 272 273 274 275 275 276 277 278 278 279 279 281 283 285 288 292 296 300 303 305 306 306 307 307 308 310 311 312 313 313
250 236 222 231 242 243 252 263 263 278 298 281 245 245 259 269 278 280 280 280 282 288 290 288 287 285 285 284 283 283 281 279 282 283 284 294 303 306 306 307 310 307 299 294 292 287 281 279 283 287 289 289 286 285 284 278 272 267 265 265 265 265 266 267 267 268 269 270 271 272 273 273 274 275 276 277 278 280 282 285 288 291 295 299 303 305 305 306 307 308 308 310 311 312 313 312 313
240 228 227 242 253 253 255 268 275 276 288 275 252 258 270 278 284 283 280 283 289 294 290 286 290 293 291 286 284 283 282 286 288 288 292 297 301 303 305 307 308 303 294 289 286 281 278 279 286 293 296 294 288 286 284 277 270 266 265 265 264 265 265 266 266 267 267 268 269 270 271 271 272 273 275 277 279 282 285 287 290 293 297 301 304 305 305 306 307 308 309 310 311 312 312 312 312
239 239 249 256 257 253 247 260 291 263 267 277 264 269 279 278 278 283 286 291 294 294 292 292 299 299 291 291 291 287 286 287 288 292 297 298 300 305 306 306 305 296 284 280 277 274 275 281 290 297 301 298 292 286 282 274 266 262 263 262 262 263 264 265 265 265 266 267 268 269 269 270 272 273 275 278 281 285 287 289 292 296 300 302 303 304 305 306 307 308 309 309 310 311 311 312 312
249 253 256 252 247 243 232 227 261 251 233 280 274 277 280 272 268 280 288 291 292 293 289 289 298 294 292 294 292 288 287 285 285 294 299 299 302 306 306 304 301 290 279 274 270 271 278 285 292 296 299 297 291 285 280 271 264 262 262 262 261 262 263 264 265 265 265 266 267 269 270 271 273 275 278 281 284 286 288 290 293 297 300 302 303 303 304 306 307 307 308 309 309 310 311 312 312
253 253 249 246 248 247 241 231 229 236 201 272 287 292 281 277 277 284 290 292 290 287 275 271 289 299 299 297 292 289 287 284 287 296 300 301 303 304 303 300 297 288 279 272 269 275 285 289 293 295 294 292 288 283 276 267 263 263 265 264 263 263 262 263 264 264 264 265 267 269 270 273 275 277 279 282 285 286 287 291 295 298 301 301 302 303 304 306 306 306 307 308 309 310 311 312 312
256 252 247 248 250 247 250 248 241 239 232 260 300 288 279 282 288 292 294 292 281 281 279 283 296 304 303 296 290 289 289 290 294 298 301 302 302 301 298 297 295 287 280 274 273 280 287 289 291 291 290 290 289 281 270 265 266 269 270 269 267 264 262 262 262 262 264 265 267 269 271 274 276 278 281 283 284 285 287 292 296 299 300 301 302 303 304 305 305 305 307 307 309 310 312 312 312
261 259 256 256 255 249 248 254 246 240 239 242 214 273 278 281 283 285 287 284 282 289 291 294 301 305 300 292 289 292 294 296 298 298 300 301 300 298 295 295 294 286 279 276 276 280 284 285 287 287 285 288 289 282 274 274 275 276 276 274 270 266 263 261 260 260 262 265 267 269 272 274 276 278 280 281 282 285 289 294 297 298 299 300 301 303 304 305 305 305 306 307 309 311 312 312 310